Location: Groß Eilstorf
(52.8200°N, 9.4552°E)
Time: 13:14:43
(UTC+00:00)

Cosmos-2242 - Pass Details

Date: 15 May 2026
Orbit: 565 x 588 km, 82.5° (Epoch: 11 June)

Event Time Altitude Azimuth Distance (km) Brightness Sun altitude
Exits shadow 21:37:59 26° 169° (S) 1,136 3.8 -14.9°
Maximum altitude 21:40:08 62° 97° (E) 646 3.0 -15.0°
Drops below altitude 10° 21:44:13 10° 17° (NNE) 1,877 6.3 -15.3°
Sets 21:46:25 0° 14° (NNE) 2,778 7.3 -15.4°
